TimeCDT,TemperatureF,Dew PointF,Humidity,Sea Level PressureIn,VisibilityMPH,Wind Direction,Wind SpeedMPH,Gust SpeedMPH,PrecipitationIn,Events,Conditions,WindDirDegrees,DateUTC
12:52 AM,75.0,69.1,82,30.12,10.0,SE,5.8,-,N/A,,Clear,130,2013-07-18 05:52:00
1:52 AM,73.9,69.1,85,30.12,10.0,ESE,5.8,-,N/A,,Clear,110,2013-07-18 06:52:00
2:52 AM,73.9,69.1,85,30.12,10.0,SSE,6.9,-,N/A,,Partly Cloudy,160,2013-07-18 07:52:00
3:52 AM,71.1,68.0,90,30.10,10.0,ESE,6.9,-,N/A,,Clear,110,2013-07-18 08:52:00
4:52 AM,72.0,68.0,87,30.09,10.0,East,5.8,-,N/A,,Clear,100,2013-07-18 09:52:00
5:52 AM,70.0,66.9,90,30.09,10.0,ESE,4.6,-,N/A,,Clear,120,2013-07-18 10:52:00
6:52 AM,71.1,68.0,90,30.09,10.0,Calm,Calm,-,N/A,,Clear,0,2013-07-18 11:52:00
7:52 AM,77.0,68.0,74,30.07,10.0,SSW,10.4,-,N/A,,Clear,200,2013-07-18 12:52:00
8:52 AM,81.0,68.0,65,30.06,10.0,SSW,9.2,-,N/A,,Clear,210,2013-07-18 13:52:00
9:52 AM,84.0,68.0,58,30.05,10.0,SW,10.4,19.6,N/A,,Clear,230,2013-07-18 14:52:00
10:52 AM,87.1,69.1,55,30.04,10.0,SSW,16.1,21.9,N/A,,Clear,210,2013-07-18 15:52:00
11:52 AM,89.1,68.0,50,30.02,10.0,SW,18.4,26.5,N/A,,Clear,220,2013-07-18 16:52:00
12:52 PM,90.0,68.0,48,30.00,10.0,SSW,18.4,25.3,N/A,,Clear,210,2013-07-18 17:52:00
1:52 PM,91.9,66.9,44,29.98,10.0,SSW,17.3,26.5,N/A,,Clear,210,2013-07-18 18:52:00
2:52 PM,91.9,66.9,44,29.96,10.0,SSW,21.9,27.6,N/A,,Clear,200,2013-07-18 19:52:00
3:52 PM,91.9,68.0,45,29.94,10.0,SSW,19.6,27.6,N/A,,Clear,200,2013-07-18 20:52:00
4:52 PM,93.0,70.0,47,29.93,10.0,South,17.3,24.2,N/A,,Partly Cloudy,190,2013-07-18 21:52:00
5:52 PM,91.0,68.0,47,29.91,10.0,SSW,21.9,27.6,N/A,,Clear,210,2013-07-18 22:52:00
6:52 PM,90.0,68.0,48,29.89,10.0,SSW,12.7,-,N/A,,Clear,210,2013-07-18 23:52:00
7:52 PM,88.0,69.1,53,29.87,10.0,SSW,8.1,-,N/A,,Clear,200,2013-07-19 00:52:00
8:52 PM,84.0,68.0,58,29.87,10.0,South,8.1,-,N/A,,Clear,190,2013-07-19 01:52:00
9:52 PM,84.0,66.9,56,29.87,10.0,South,8.1,-,N/A,,Clear,170,2013-07-19 02:52:00
10:52 PM,82.9,66.9,58,29.87,10.0,South,9.2,-,N/A,,Clear,180,2013-07-19 03:52:00
11:52 PM,84.0,66.0,55,29.86,10.0,SSW,16.1,24.2,N/A,,Clear,200,2013-07-19 04:52:00